Regional Weather Roundup
Issued by NWS Boston, MA

Current Version | Previous Version | Text Only | Print | Product List | Glossary Off
Versions: 1 2 3 4 5 6 7 8 9 10 11 12 13 14 15 16 17 18 19 20 21 22 23 24 25 26 27
000 ASUS41 KBOX 240110 RWRBOX REGIONAL WEATHER ROUNDUP NATIONAL WEATHER SERVICE TAUNTON MA 900 PM EDT FRI JUN 23 2017 NOTE: "FAIR" INDICATES FEW OR NO CLOUDS BELOW 12,000 FEET WITH NO SIGNIFICANT WEATHER AND/OR OBSTRUCTIONS TO VISIBILITY. MAZALL-240200- EASTERN MASSACHUSETTS CITY SKY/WX TMP DP RH WIND PRES REMARKS BOSTON CLOUDY 75 69 81 S15 29.60S BEVERLY CLOUDY 78 70 76 SW10 29.59R LAWRENCE CLOUDY 80 70 71 SW8 29.60S BEDFORD MOCLDY 77 67 71 SW14 29.59R BLUE HILL N/A 72 67 84 S17G24 29.63S NORWOOD MOCLDY 75 70 84 S9 29.61F MARSHFIELD MOCLDY 73 70 88 SW9G18 29.64R PLYMOUTH CLOUDY 71 67 87 SW17G24 29.66S TAUNTON CLOUDY 71 67 87 SW10G20 29.65S NEW BEDFORD CLOUDY 70 67 90 SW15G22 29.66S $$ MAZALL-240200- CAPE COD AND THE ISLANDS CITY SKY/WX TMP DP RH WIND PRES REMARKS FALMOUTH N/A 70 68 94 SW16G23 29.69S HYANNIS CLOUDY 70 66 87 SW21G30 29.67S CHATHAM CLOUDY 69 66 90 SW14G25 29.70F PROVINCETOWN CLOUDY 68 65 90 SW20G28 29.66S NANTUCKET MOCLDY 65 64 97 S17 29.72F MARTHAS VNYRD CLOUDY 68 64 87 S16 29.69F $$ MAZALL-240200- CENTRAL AND WESTERN MASSACHUSETTS CITY SKY/WX TMP DP RH WIND PRES REMARKS WORCESTER PTCLDY 72 68 87 SW15 29.65R FITCHBURG CLOUDY 78 71 79 S10G16 29.61S ORANGE MOCLDY 75 72 90 S9 29.61S SPRINGFIELD MOCLDY 76 70 81 S10 29.60S WESTFIELD CLEAR 78 72 81 S10 N/A NORTH ADAMS CLOUDY 74 69 85 CALM 29.60S PITTSFIELD CLOUDY 75 67 76 S6 29.62S $$ RIZALL-240200- RHODE ISLAND CITY SKY/WX TMP DP RH WIND PRES REMARKS PROVIDENCE CLOUDY 73 71 93 SW13G22 29.65F NEWPORT CLOUDY 68 67 96 S12G21 29.67S BLOCK ISLAND CLOUDY 67 66 97 SW17G25 29.69S WESTERLY CLOUDY 71 68 90 SW9 29.67F $$ CTZALL-240200- CONNECTICUT CITY SKY/WX TMP DP RH WIND PRES REMARKS BRADLEY INTL CLOUDY 77 71 82 S12 29.62R HARTFORD CLOUDY 77 71 82 S10 29.61F BRIDGEPORT CLOUDY 75 68 78 SW8 29.64R DANBURY CLOUDY 76 73 91 S6 29.65S GROTON PTCLDY 70 68 93 SW8 29.66F NEW HAVEN CLOUDY 73 70 88 W5 29.65S CHESTER FAIR 73 72 94 S7 29.67S MERIDEN CLOUDY 75 70 84 S10 29.64S WILLIMANTIC PTCLDY 78 71 79 S9 29.65R OXFORD LGT RAIN 73 68 83 SW9 29.67S $$ MEZ002-015-021-024-NHZ003-005-008-011-012-014-VTZ005-008-240200- NORTHERN NEW ENGLAND CITY SKY/WX TMP DP RH WIND PRES REMARKS PORTLAND ME CLOUDY 67 63 87 S12G23 29.56F BANGOR ME CLOUDY 66 64 93 S7 29.61F FOG CONCORD NH MOCLDY 78 68 71 S10 29.56S MANCHESTER NH CLOUDY 78 68 71 S8 29.56S NASHUA NH CLOUDY 77 71 82 VRB3 29.59S PORTSMOUTH NH MOCLDY 76 68 76 S8 29.55S JAFFREY NH CLOUDY 75 71 87 SW8 29.62S KEENE NH CLOUDY 76 70 82 S9 29.59R BURLINGTON VT CLOUDY 74 71 91 S9 29.50F MT. WASHINGTON FOG 55 55 100 SW30G39 N/A VSB 0 $$ NYZ052-076-240200- EASTERN NEW YORK CITY SKY/WX TMP DP RH WIND PRES REMARKS ALBANY CLOUDY 78 70 76 S9 29.57S NEW YORK CITY LGT RAIN 77 74 90 S9 29.63S $$ ANZALL-240200- MARINE OBSERVATIONS STATION/POSITION TIME TEMP WIND PRES VSBY WAVE AIR SEA DIR/SP/G HT/PER (UTC) (F) (DEG/KT/KT) (MB) (MI) (FT/S) BOSTON BUOY 0050 65 60 170/ 12/ 14 1002.7R 2/ 4 BUZZARDS BAY 0000 66 200/ 22/ 24 1004.9F NANTUCKET SOUND 0050 66 1005.0F 2/ 4 MASS BAY-STELLWA 0004 64 60 180/ 14/ 16 1001.7F 3/ 4 ISLE OF SHOALS 0000 65 160/ 25/ 27 1001.1R S OF BLOCK IS 0055 63 N/A 5/ 6 $$ ......................KEY......................... SKY/WX - SKY CONDITION/PRESENT WEATHER TMP - TEMPERATURE IN FAHRENHEIT DWPT - DEWPOINT IN FAHRENHEIT RH - RELATIVE HUMIDITY IN PERCENT WIND - DIRECTION AND SPEED IN MPH PRES - MEAN SEA LEVEL PRESSURE IN INCHES OF HG WCI - WIND CHILL INDEX VSB - VISIBILITY IN MILES HX - HEAT INDEX TC - TEMPERATURE IN CELSIUS VRB - VARIABLE WIND DIRECTION N/A - NOT AVAILABLE

USA.gov is the U.S. government's official web portal to all federal, state and local government web resources and services.